Regional Weather Roundup
Issued by NWS Albany, NY

Home | Current Version | Previous Version | Text Only | Print | Product List | Glossary On
Versions: 1 2 3 4 5 6 7 8 9 10 11 12 13 14 15 16 17 18 19 20 21 22 23 24 25 26 27 28 29 30 31 32 33 34 35 36 37 38 39 40 41 42 43 44 45 46 47 48 49 50
034
ASUS41 KALY 241810
RWRALY

NEW YORK STATE HOURLY WEATHER ROUNDUP
NATIONAL WEATHER SERVICE ALBANY NY
200 PM EDT MON JUL 24 2017

NOTE: "FAIR" INDICATES FEW OR NO CLOUDS BELOW 12,000 FEET WITH NO
SIGNIFICANT WEATHER AND/OR NO OBSTRUCTIONS TO VISIBILITY.

NYZ032-033-038>043-046>054-057>066-NYZ062>081-082-084-241900-
EAST


CITY           SKY/WX    TMP DP  RH WIND       PRES   REMARKS
ALBANY         CLOUDY    63  58  83 NE7       29.89F
GLENS FALLS    CLOUDY    59  56  89 NE8       29.91F
POUGHKEEPSIE   CLOUDY    66  57  72 NE10      29.85F
NEWBURGH       PTSUNNY   68  61  77 NE16      29.86F
MONTGOMERY     CLOUDY    67  60  78 NE9       29.86S
WHITE PLAINS   PTSUNNY   64  57  78 N9G17     29.84R
ISLIP          LGT RAIN  62  61  96 N17       29.79R FOG
NEW YORK CITY  CLOUDY    66  61  84 N13       29.83R
CENTRAL PARK   CLOUDY    64  60  87 VRB7G21   29.87R
$$

NYZ005>009-017-018-044>046-055-056-241900-
CENTRAL


CITY           SKY/WX    TMP DP  RH WIND       PRES   REMARKS
FULTON         PTSUNNY   70  65  84 SE8       29.77S
SYRACUSE       LGT RAIN  64  64 100 E12       29.77S
ROME           CLOUDY    63  59  87 E16       29.83F
ELMIRA         LGT RAIN  74  68  81 S8        29.76R
BINGHAMTON     CLOUDY    70  64  81 SE7       29.81F
$$

NYZ026>034-041>043-087-241900-
NORTH


CITY           SKY/WX    TMP DP  RH WIND       PRES   REMARKS
WATERTOWN      CLOUDY    70  64  81 SW5       29.74R
FORT DRUM      NOT AVBL
OGDENSBURG     RAIN      62  60  95 E7        29.80S
MASSENA        LGT RAIN  61  60  97 NE13      29.85R
SARANAC LAKE   LGT RAIN  57  57 100 CALM      29.85F
PLATTSBURGH    RAIN      59  56  89 S7        29.95R FOG
$$

NYZ001>004-010>016-019>021-085-241900-
WEST


CITY           SKY/WX    TMP DP  RH WIND       PRES   REMARKS
NIAGARA FALLS  CLOUDY    75  60  59 W10       29.77F
BUFFALO        PTSUNNY   74  60  61 SW17      29.78S
DUNKIRK        CLOUDY    71  61  70 SW16G24   29.82S
JAMESTOWN      CLOUDY    70  55  60 W18       29.86S
WELLSVILLE     PTSUNNY   75  59  57 W12G24    29.84S
ROCHESTER      MOSUNNY   77  65  66 VRB7      29.76F
PENN YAN       CLOUDY    77  63  61 NW8G16    29.78S
$$

             KEY
       WCI = WIND CHILL INDEX
       VSB = VISIBILITY
       HX  = HEAT INDEX
$$




USA.gov is the U.S. government's official web portal to all federal, state and local government web resources and services.